Regional Weather Roundup
Issued by NWS

Current Version | Previous Version | Text Only | Print | Product List | Glossary On
Versions: 1 2 3 4 5 6 7 8 9 10 11 12 13 14 15 16 17 18 19 20 21 22 23 24 25 26 27 28 29 30 31 32 33 34 35 36 37 38 39 40 41 42 43 44 45 46 47 48 49 50
000
ASUS43 KDTX 250510
RWRMI
MICHIGAN HOURLY REGIONAL WEATHER ROUNDUP
NATIONAL WEATHER SERVICE DETROIT/PONTIAC MI
ISSUED BY NATIONAL WEATHER SERVICE GRAND RAPIDS MI
1200 AM EST SUN FEB 25 2024

NOTE: "FAIR" INDICATES FEW OR NO CLOUDS BELOW 12,000 FEET WITH NO
SIGNIFICANT WEATHER AND/OR OBSTRUCTION TO VISIBILITY.

MIZ047>049-052>055-059>063-066>070-074>076-081>083-250600-
SOUTHEAST LOWER MICHIGAN

CITY           SKY/WX    TMP DP  RH WIND       PRES   REMARKS
ADRIAN         MOCLDY    26  17  68 SW9G18    30.04F WCI  17 TC  -3
ALMA           MOCLDY    28  13  54 S10G18    29.95F WCI  18 TC  -2
ANN ARBOR      MOCLDY    24  17  74 SW9       30.02S WCI  14 TC  -4
BAD AXE        MOCLDY    26  14  61 SW6       29.94F WCI  19 TC  -3
DETROIT CITY   MOCLDY    29  15  56 SW13      30.02S WCI  19 TC  -2
DETROIT        MOCLDY    25  17  72 SW13      30.04S WCI  14 TC  -4
FLINT          MOCLDY    28  17  63 SW12      30.00R WCI  18 TC  -2
GROSSE ILE     MOCLDY    26  13  57 SW10G16   30.04S WCI  16 TC  -3
HILLSDALE      MOCLDY    24  15  68 S7        30.00F WCI  16 TC  -4
HOWELL         MOCLDY    26  18  72 SW8       30.00R WCI  18 TC  -3

CITY           SKY/WX    TMP DP  RH WIND       PRES   REMARKS
JACKSON        MOCLDY    26  16  65 S13G20    30.00S WCI  15 TC  -3
LANSING        MOCLDY    27  13  55 S10       29.99F WCI  17 TC  -3
MASON          MOCLDY    27  17  65 S3        29.99F TC  -3
MIDLAND        MOCLDY    28  14  55 SW9       29.94F WCI  20 TC  -2
MONROE         MOCLDY    26  17  70 SW7       30.05S WCI  18 TC  -3
MT. CLEMENS    CLOUDY    28  15  58 SW14G20   30.00R WCI  17 TC  -2
PONTIAC        MOCLDY    26  16  65 SW13G23   29.98S WCI  15 TC  -3
PORT HOPE        N/A     26  16  65 VRB3      29.93F TC  -3
PORT HURON     MOCLDY    28  16  59 SW7       30.00S WCI  21 TC  -2
TRI CITIES     MOCLDY    28  14  55 SW10      29.96F WCI  19 TC  -2
YPSILANTI      MOCLDY    26  18  71 S12       30.03F WCI  16 TC  -3
$$
MIZ043>046-050>051-056>058-064>065-071>073-077>080-250600-
SOUTHWEST LOWER MICHIGAN

CITY           SKY/WX    TMP DP  RH WIND       PRES   REMARKS
BATTLE CREEK   MOCLDY    27  17  66 S12       29.99F WCI  17 TC  -3
BENTON HARBOR  MOCLDY    29  21  72 S9G20     30.00S WCI  20 TC  -2
BIG RAPIDS     MOCLDY    26  14  62 SW9       29.92S WCI  16 TC  -3
COLDWATER      MOCLDY    26  15  63 S7        30.01F WCI  19 TC  -3
HOLLAND        MOCLDY    29  17  61 S12       29.98S WCI  19 TC  -2
GRAND RAPIDS   MOCLDY    28  17  63 S13       29.97F WCI  17 TC  -2
KALAMAZOO      MOCLDY    28  16  60 S14       29.99F WCI  17 TC  -2
MARSHALL       MOCLDY    26  16  65 S7        30.00F WCI  18 TC  -3
MOUNT PLEASANT MOCLDY    28  12  53 SW12      29.93S WCI  17 TC  -2
MUSKEGON       MOCLDY    35  24  64 SW20G29   29.96S WCI  24 TC   2
SOUTH HAVEN    CLOUDY    28  17  65 S8        29.99F WCI  20 TC  -2
STURGIS        MOCLDY    26  16  65 S9        30.01S WCI  17 TC  -3
$$
MIZ016>042-250600-
NORTHERN LOWER MICHIGAN

CITY           SKY/WX    TMP DP  RH WIND       PRES   REMARKS
ALPENA         CLOUDY    27   8  44 SW13G22   29.84F WCI  16 TC  -3
BEAVER ISLAND  CLOUDY    33  26  76 SW16G29   29.79F WCI  22 TC   0
BELLAIRE       CLOUDY    27  15  60 S9G18     29.87F WCI  18 TC  -3
CADILLAC       CLOUDY    23  14  68 SW16G24   29.86S WCI  10 TC  -5
CHARLEVOIX     CLOUDY    27  19  71 S13G18    29.83F WCI  16 TC  -3
GAYLORD        MOCLDY    25   6  44 SW15      29.82R WCI  13 TC  -4
HOUGHTON LAKE  MOCLDY    24  10  55 SW12G21   29.88R WCI  13 TC  -4
MANISTEE       PTCLDY    23  18  81 SE5       29.89F WCI  17 TC  -5
OSCODA         MOCLDY    27  13  55 SW16G22   29.90F WCI  15 TC  -3
PELLSTON       CLOUDY    28  16  60 SW13G22   29.82F WCI  17 TC  -2
TRAVERSE CITY  PTCLDY    28  18  66 S12G22    29.84F WCI  18 TC  -2
LUDINGTON      CLOUDY    33  23  67 SW21      29.90F WCI  21 TC   1
$$
MIZ007>008-015-250600-
EASTERN UPPER MICHIGAN

CITY           SKY/WX    TMP DP  RH WIND       PRES   REMARKS
KINROSS        CLOUDY    27  22  81 SW10G16   29.77F WCI  17 TC  -3
MACKINAC ISLAN CLOUDY    29  20  70 SW14G28   29.80F WCI  18 TC  -2
NEWBERRY       CLOUDY    31  20  65 SW14G21   29.74S WCI  21 TC  -1
S. S. MARIE    CLOUDY    27  21  78 S8        29.77F WCI  19 TC  -3
$$
MIZ004>006-011>014-085-250600-
CENTRAL UPPER MICHIGAN

CITY           SKY/WX    TMP DP  RH WIND       PRES   REMARKS
MANISTIQUE     PTCLDY    30  21  69 SW12G21   29.75F WCI  20 TC  -1
ESCANABA       CLEAR     28  18  66 SW12      29.75F WCI  18 TC  -2
MENOMINEE      CLEAR     29  19  66 SW14      29.77F WCI  18 TC  -2
SAWYER-GWINN   PTCLDY    25  10  54 SW15      29.64F WCI  12 TC  -4
$$
MIZ001>003-009>011-084-250600-
WESTERN UPPER MICHIGAN

CITY           SKY/WX    TMP DP  RH WIND       PRES   REMARKS
IRON MOUNTAIN  PTCLDY    25  12  58 S6        29.68F WCI  18 TC  -4
HOUGHTON       PTCLDY    34  15  46 SW9G20    29.55F WCI  27 TC   1
COPPER HARBOR    N/A     32  14  47 SW13G24   29.54  WCI  22 TC   0
IRONWOOD       MOCLDY    33  17  51 SW15G25   29.58F WCI  23 TC   1
$$

ABBREVIATIONS USED IN REMARKS
   TC - TEMPERATURE IN CELSIUS
  WCI - WIND CHILL INDEX
   HX - HEAT INDEX
  VSB - VISIBILITY




USA.gov is the U.S. government's official web portal to all federal, state and local government web resources and services.